Погода в Светлом

Россия / Новосибирская область     55°00′48″N   82°16′54″E
темп.,
°C
ветер,
м/с
пор.,
м/с
влажн.,
%
обл.,
%
осадки,
мм/ч
давл.,
гПа
погр.,
м
15 мая, сб
сб1501:00+10з3346100 0.0 102327
04:00+9зюз47505 0.0 1023104
07:00+11зюз5115097 0.0 1022237
10:00+17зюз8123697 0.0 1021594
13:00+22зюз9113424 0.0 1020911
16:00+25з9113176 0.0 10181667
19:00+23з8114284 0.0 10171402
22:00+19юз6155346 0.0 1016420
16 мая, вс
вс1601:00+15зюз51177100 2.9 1016248
04:00+13зюз348252 0.0 101564
07:00+14зсз24785 0.0 1014112
10:00+20зюз455637 0.0 1013648
13:00+26з793792 0.0 10111488
16:00+27з81332100 0.0 10093267
19:00+24сз9144669 0.1 10082096
22:00+15с4988100 4.1 1012612
17 мая, пн
пн1701:00+13ссв468891 4.3 1014363
04:00+12ссв4587100 0.0 1015309
07:00+10св4585100 0.0 1017381
10:00+13св337025 0.0 1018571
13:00+18сз125292 0.0 10171186
16:00+20з354364 0.0 10161882
19:00+21з464374 0.0 10141609
22:00+17ю346099 0.1 101349
18 мая, вт
вт1801:00+16ююз71573100 1.9 1010334
04:00+15ююз71385100 2.4 1009363
07:00+16юз5975100 3.3 1006210
10:00+21зсз6105682 0.1 1006953
13:00+23зсз7114710 0.1 10051978
16:00+24зсз9114297 0.0 10052638
19:00+19сз58615 0.4 1006809
22:00+15с4877100 0.4 1008289
19 мая, ср
ср1901:00+12с3688100 0.4 1008179
04:00+10с359591 0.0 1008171
07:00+10ссв4584100 0.0 1008557
10:00+10ссв5681100 0.0 1008792
13:00+11ссв5671100 0.1 1008954
16:00+11ссв6769100 0.1 1009957
19:00+11ссв4756100 0.2 10101335
22:00+10с3553100 0.0 1011159